Wind_Speed
27 27 27 26 25 24 24 24 24 23 23 22 21 20 18 18 17 15 14 14 13 12 11 9 9 8 7 7 5 4 4 4 5 6 7 8 9 9 10 10 11 12 13 15 16 17 18 18 20 20 20 20 20 21 23 24 26 27 27 29 31 30 31 33 38 48 54 54 55 57 57 58 60 60 60 62 62 62 63 63 62 62 62 61 61
27 27 26 25 24 24 24 24 24 24 23 22 21 20 19 17 17 16 15 15 14 12 11 10 10 9 8 6 5 5 5 6 6 7 8 9 10 10 11 12 13 14 15 17 17 18 19 19 20 20 20 20 21 23 25 26 27 29 29 30 32 32 32 33 38 45 53 58 59 60 60 60 61 63 62 62 64 64 65 65 64 63 63 61 60
26 26 25 25 25 26 26 25 25 24 23 22 20 19 19 17 17 17 16 15 14 13 12 11 10 9 8 7 6 6 7 7 8 9 9 10 11 12 13 14 15 16 17 18 19 19 20 20 20 20 20 21 22 24 26 28 29 31 31 32 33 34 33 34 36 41 49 57 61 62 63 63 64 65 63 63 63 63 64 66 65 64 64 62 59
26 26 26 27 27 27 26 25 24 23 22 21 20 19 19 18 18 17 16 15 14 13 13 12 10 9 8 8 8 8 8 8 9 10 11 12 13 13 14 15 16 17 18 19 19 20 20 20 20 21 22 23 24 26 28 29 31 32 34 34 35 36 36 36 37 39 45 53 60 62 63 64 65 65 64 64 64 63 62 64 65 63 61 60 58
26 27 27 28 28 27 25 24 24 22 22 21 20 20 19 19 19 18 16 15 14 14 13 12 10 9 9 9 9 9 9 9 10 11 12 13 14 14 15 16 17 18 19 19 20 20 21 21 21 22 24 26 27 28 30 31 33 34 35 37 37 38 39 39 39 40 43 50 57 61 62 64 65 66 64 61 61 62 61 62 62 60 58 58 58
27 27 28 27 27 26 25 24 23 23 22 21 21 21 20 20 19 18 17 16 15 14 13 11 10 10 10 10 10 10 10 10 11 12 12 13 14 15 16 17 18 18 19 20 20 21 21 22 23 24 26 28 30 31 33 34 35 37 37 39 40 41 42 43 43 43 45 49 54 57 60 62 63 65 64 59 57 57 57 58 60 59 59 60 60
27 27 26 26 25 25 24 24 23 23 22 22 21 21 20 20 19 18 18 16 15 14 12 12 11 11 11 11 10 10 10 11 11 12 13 14 15 16 17 18 18 19 19 20 21 22 23 23 25 26 28 30 32 33 35 36 38 39 40 41 42 43 44 45 44 45 47 49 52 54 56 59 59 60 62 59 56 55 54 56 60 62 60 60 61
27 26 26 25 25 24 24 24 23 23 22 22 22 21 21 21 20 19 18 17 15 14 13 12 12 12 11 11 11 11 11 11 12 13 14 15 16 18 18 19 19 19 20 21 22 23 24 25 26 27 29 30 32 34 36 38 40 41 41 42 43 44 45 46 46 47 47 49 52 52 53 56 58 58 59 58 57 57 56 56 60 62 60 60 60
27 26 26 25 25 24 24 24 24 24 23 23 22 22 22 21 20 19 18 17 15 14 13 13 12 12 11 11 11 10 11 11 12 14 15 16 18 19 20 20 21 21 21 22 23 24 25 26 27 28 29 31 32 34 36 38 40 41 42 42 43 44 45 46 46 47 47 48 50 50 50 53 55 55 55 56 55 57 57 57 59 60 60 61 59
27 26 26 26 25 25 25 25 25 25 24 24 24 23 23 22 21 19 18 17 16 15 14 13 13 12 11 11 10 10 11 12 13 15 16 18 19 19 20 21 22 23 24 24 25 25 26 27 27 29 30 32 34 35 37 38 38 40 41 41 42 42 44 45 46 45 44 44 47 47 47 51 53 52 53 54 53 55 57 57 59 60 60 60 59
27 27 26 26 26 26 26 26 26 26 25 25 25 24 23 22 20 19 18 17 16 16 14 13 13 12 11 10 10 10 11 13 15 16 18 18 19 20 21 22 23 24 25 26 27 27 27 28 29 30 32 33 35 36 37 38 39 39 40 40 41 41 41 42 44 44 42 42 45 46 45 47 50 50 51 51 52 54 56 56 58 59 59 57 58
27 27 27 27 27 27 27 27 27 27 27 26 26 25 23 22 20 19 19 18 17 16 14 13 12 11 10 9 10 11 12 14 15 17 18 19 20 22 23 24 25 26 27 27 28 28 29 30 31 32 34 35 36 37 38 39 40 41 42 42 42 42 40 39 39 39 39 40 44 46 44 45 48 49 50 50 51 52 53 54 55 56 56 54 54
28 29 29 29 29 29 28 28 28 28 28 27 26 25 23 22 21 20 19 18 17 15 14 13 12 10 10 10 11 12 13 15 15 17 18 20 21 23 24 25 26 27 28 28 28 29 30 31 33 34 35 35 37 38 40 41 42 43 43 44 44 44 43 41 39 36 35 35 38 42 43 43 46 47 47 47 48 49 50 51 52 52 53 51 51
30 30 30 30 30 30 29 30 30 29 29 28 26 25 24 23 22 20 19 18 17 15 14 12 11 10 10 11 12 13 13 15 16 17 19 20 22 24 25 26 27 28 28 28 29 30 31 32 34 35 36 37 38 40 41 43 44 44 45 45 46 46 46 45 44 41 38 35 35 39 41 41 42 44 44 43 45 47 49 50 50 50 50 48 47
32 31 31 31 31 31 31 32 31 30 29 28 27 26 24 23 22 20 19 18 16 15 13 12 11 10 11 12 12 13 14 15 16 18 20 22 23 25 26 27 28 28 28 28 29 30 31 32 34 35 37 38 39 40 41 43 44 45 46 47 47 48 48 47 46 45 43 40 38 39 40 40 40 41 42 42 43 44 45 46 46 46 47 46 46
33 33 33 33 33 34 34 33 32 31 30 29 27 26 24 23 22 21 19 18 16 14 13 12 11 11 11 12 13 13 14 16 18 19 21 23 24 26 27 28 28 28 28 28 29 30 31 33 34 35 36 37 38 38 39 41 43 44 46 48 49 50 50 49 48 46 44 42 40 40 40 40 40 40 39 39 41 42 42 42 43 43 45 47 49
35 35 35 35 35 35 35 33 32 31 30 29 27 26 24 23 22 21 19 17 15 14 13 12 12 12 11 12 13 14 15 17 19 21 23 25 26 27 27 27 28 28 28 29 30 31 32 33 34 35 36 36 37 37 38 40 42 43 45 48 50 51 51 51 51 50 47 45 43 42 41 41 41 40 39 39 39 39 40 41 41 42 45 48 48
37 37 37 37 36 36 35 34 33 32 30 28 27 25 24 23 22 20 18 17 15 14 13 12 12 11 11 12 13 14 16 18 20 22 24 26 27 27 27 28 28 28 29 29 31 31 32 33 34 34 35 36 36 36 37 39 41 42 44 46 48 50 50 51 52 52 51 49 48 46 44 42 42 42 41 39 37 36 37 38 39 40 43 45 47
38 38 38 38 37 36 35 34 32 31 29 28 26 25 24 23 22 20 18 16 15 14 13 12 12 11 12 13 14 16 18 20 21 24 25 27 27 27 28 28 29 29 30 31 32 32 32 33 33 33 34 35 36 36 36 37 39 40 40 41 43 45 46 47 48 48 49 49 48 47 46 45 44 43 41 39 36 35 34 35 36 38 39 42 44
39 39 38 38 38 37 35 34 32 30 29 27 27 26 24 23 21 19 18 16 15 14 13 12 12 12 12 13 15 17 19 21 23 24 25 26 27 28 28 29 29 30 31 32 32 33 33 33 33 33 34 35 36 36 36 36 36 37 36 37 38 40 41 42 42 42 43 45 46 47 47 46 45 42 40 39 38 35 34 34 34 34 36 38 40
40 40 39 39 38 37 36 34 32 30 28 28 27 26 24 22 20 18 17 15 15 14 13 13 12 12 13 15 17 18 20 22 23 25 26 26 27 27 28 29 30 31 32 32 32 33 33 33 34 34 35 35 36 36 36 35 34 33 34 34 33 34 36 38 39 40 42 44 45 46 46 45 44 44 43 42 40 36 34 34 32 32 33 35 38
41 40 40 40 39 37 36 34 32 31 29 28 27 26 24 22 20 18 17 16 15 14 13 13 13 13 14 16 18 20 21 23 24 24 25 26 26 27 27 28 30 31 32 32 32 33 33 34 34 34 34 35 35 35 35 34 33 32 32 32 32 33 35 37 40 41 42 43 44 45 45 44 44 44 44 43 41 37 35 33 32 32 32 33 36
42 41 41 41 39 38 36 34 33 31 30 29 27 25 23 21 19 18 17 16 15 15 14 13 13 14 16 18 20 21 22 23 24 25 25 25 25 26 27 28 29 30 31 31 32 32 33 34 34 34 34 34 34 34 33 33 33 33 32 32 33 34 36 38 40 41 42 43 45 46 45 43 42 42 42 41 40 38 36 35 34 35 34 33 33
43 42 42 41 39 38 36 34 33 32 30 29 27 25 23 21 20 19 17 16 16 14 13 14 15 16 18 20 21 21 22 23 24 24 24 24 25 26 26 27 27 28 29 29 30 32 33 34 34 34 35 35 34 34 33 33 33 33 33 33 34 35 37 39 40 41 43 45 46 46 46 43 41 40 41 41 41 40 39 38 38 37 37 36 34
43 42 41 40 39 37 36 34 33 32 30 28 26 25 23 21 20 19 18 17 16 14 15 16 18 19 20 21 21 21 21 22 23 24 24 25 25 25 25 25 26 27 28 29 30 31 32 32 33 34 34 34 34 34 34 34 33 33 33 34 35 37 38 39 40 41 44 46 46 47 46 43 40 38 38 40 41 40 40 41 40 39 38 38 36
42 42 41 40 39 38 36 35 34 32 30 28 26 25 23 21 20 19 18 17 16 16 17 19 20 21 20 20 20 20 21 22 23 24 24 25 25 24 25 25 25 26 27 28 29 30 30 31 32 33 34 34 34 35 34 34 34 33 34 35 36 38 38 39 40 43 45 46 47 47 45 42 38 36 37 39 40 39 39 41 42 40 39 39 37
42 42 42 41 39 38 36 35 34 32 30 29 27 26 24 23 21 20 18 17 17 19 20 21 21 21 20 19 19 20 21 23 24 24 24 24 24 24 25 25 26 27 27 28 29 30 30 31 32 32 33 32 33 33 33 33 33 34 35 36 36 37 37 38 40 43 45 46 47 46 43 40 37 36 38 39 39 38 38 40 41 40 38 36 34
42 42 41 40 39 38 36 35 33 32 31 29 28 26 25 23 21 19 18 19 20 22 23 23 22 20 19 18 19 20 22 24 25 24 24 24 24 24 25 25 26 26 27 28 29 29 30 30 30 31 31 32 32 33 33 34 34 34 35 35 35 36 37 38 40 43 46 47 46 44 41 38 37 38 38 38 39 39 39 39 39 38 35 33 31
41 41 41 40 39 38 36 35 34 32 31 30 28 27 25 23 21 20 20 22 23 24 24 23 21 19 18 19 21 22 24 24 24 24 23 22 23 23 24 25 25 26 26 27 28 28 29 29 30 31 32 33 34 34 35 36 36 36 35 35 35 36 38 40 41 44 46 48 46 44 41 39 38 37 37 38 39 38 38 38 37 35 33 31 29
41 41 41 40 39 38 37 36 35 34 32 31 29 27 26 25 24 23 23 25 25 25 24 22 20 20 20 21 23 24 23 23 23 22 21 20 20 21 22 23 23 24 25 25 26 27 28 28 29 31 32 33 34 35 36 37 37 37 37 36 36 37 39 40 42 44 46 47 46 43 41 39 37 37 37 39 39 38 37 36 35 33 32 30 29
41 42 41 40 39 38 37 37 36 35 33 31 29 28 27 26 25 24 25 27 26 25 23 21 20 21 22 23 24 23 22 22 22 21 20 19 18 19 20 21 21 22 23 24 25 26 27 28 29 30 31 32 33 34 34 35 36 37 37 37 37 38 39 41 42 43 45 46 46 44 41 39 37 37 37 38 39 39 37 34 33 32 30 29 29
40 41 40 40 39 38 38 37 36 35 33 32 31 30 29 27 26 26 27 27 26 25 23 22 21 22 23 23 23 22 21 21 20 20 19 18 18 18 19 20 21 22 23 23 24 25 26 27 28 29 30 30 31 31 32 33 34 35 36 37 37 38 39 40 41 42 44 45 45 44 41 38 37 36 36 36 37 38 37 34 32 31 29 28 27
40 40 40 40 39 38 38 37 36 35 34 32 31 30 29 28 28 27 28 27 26 25 24 23 23 23 23 22 21 21 21 20 19 19 18 18 17 18 19 20 21 22 22 22 23 24 25 26 27 27 28 29 29 30 31 31 32 33 34 35 36 37 38 38 39 41 42 43 44 43 41 38 35 34 34 35 35 36 35 33 31 30 28 27 27
39 39 39 39 38 38 38 37 36 35 34 33 32 31 29 29 29 29 29 28 27 25 24 24 24 24 23 22 21 20 20 20 19 19 18 18 18 18 19 19 21 21 21 22 23 24 25 25 25 26 27 27 28 29 30 30 31 32 32 33 34 36 37 37 38 39 40 42 43 43 41 38 34 32 33 34 34 33 32 31 30 29 28 27 27
39 39 38 38 37 37 37 37 36 35 34 34 33 32 30 30 30 30 30 28 26 26 25 25 24 24 23 22 21 20 20 19 19 18 18 18 18 18 19 19 19 20 20 20 21 23 23 24 24 25 26 26 27 28 29 30 30 31 31 32 33 35 36 37 38 38 39 41 42 42 41 38 33 30 31 32 33 32 31 30 29 28 27 26 26
38 38 38 38 37 37 36 36 36 35 35 34 33 32 32 32 32 31 30 28 27 27 27 26 24 23 22 21 21 20 19 19 18 18 18 18 19 19 19 19 19 20 20 20 20 21 22 23 23 24 24 25 26 27 28 28 29 30 30 31 32 33 35 37 37 38 38 39 41 41 41 39 34 30 29 30 30 30 29 28 27 26 26 25 25
39 39 38 38 38 38 37 37 36 36 36 35 35 34 34 34 33 32 30 29 28 28 28 26 25 23 22 21 21 20 19 18 17 17 18 18 19 19 19 19 20 21 21 20 20 20 20 21 21 22 23 24 25 26 27 27 28 29 30 30 31 32 33 35 36 37 37 38 40 41 40 38 34 30 28 29 29 28 27 26 26 25 25 24 24
39 39 39 39 39 38 38 38 37 38 38 37 37 37 36 36 35 33 31 30 29 30 29 27 25 23 22 21 20 20 18 18 17 18 18 18 18 18 19 19 20 20 20 20 19 19 19 20 20 21 22 23 24 25 26 26 27 28 29 30 30 31 32 33 34 35 36 37 39 40 40 37 34 29 27 27 28 27 26 26 25 25 24 23 22
39 39 39 39 39 39 39 39 39 40 40 39 39 39 39 37 36 34 32 31 31 31 29 27 25 23 22 21 21 20 19 18 18 18 18 18 17 18 18 18 19 19 19 19 18 18 18 19 20 20 21 23 24 25 26 26 27 27 28 30 30 30 31 32 33 34 35 36 38 39 39 37 33 29 26 25 26 26 25 25 25 25 24 22 21
39 39 40 40 41 41 41 41 41 42 42 42 42 41 40 39 37 35 33 32 31 31 29 27 25 23 23 22 21 20 19 18 18 17 17 17 17 17 17 17 17 18 18 18 18 18 18 18 19 20 21 22 23 24 25 26 27 27 27 28 30 30 31 31 32 33 34 35 37 38 39 37 33 29 26 24 23 24 24 24 24 23 22 20 19
39 40 41 41 42 42 42 43 43 43 43 43 43 42 41 39 37 34 33 32 32 31 30 27 25 24 24 24 22 21 20 19 18 17 17 16 16 16 16 16 16 17 18 19 19 18 18 18 19 20 21 22 23 24 25 26 26 27 27 28 29 29 30 31 31 32 33 34 35 36 38 38 34 29 26 24 22 22 22 23 22 22 20 18 17
39 41 42 42 43 44 44 45 45 45 45 45 45 44 42 39 37 35 34 34 33 32 30 27 26 26 26 25 23 21 20 19 19 18 17 16 16 15 15 15 16 17 18 18 19 19 19 18 19 20 21 22 23 24 25 26 26 27 28 28 29 29 30 30 31 31 32 33 33 35 36 37 34 29 25 22 21 20 21 21 21 20 19 16 14
39 40 42 43 44 44 45 45 45 46 47 46 46 44 42 39 38 36 35 35 34 32 30 28 28 28 27 25 23 22 21 19 19 18 17 16 15 14 14 14 15 16 17 18 19 20 20 20 20 20 21 22 23 24 25 26 26 27 28 29 29 29 30 30 31 31 31 32 33 33 34 35 34 30 25 21 20 19 19 20 19 18 16 14 12
39 41 42 44 45 45 46 46 46 47 47 46 45 44 42 40 39 37 37 36 35 32 30 29 28 27 26 25 24 23 21 20 19 18 17 16 15 14 14 14 14 15 16 18 19 20 21 21 21 21 21 22 23 24 24 25 25 26 28 28 29 29 29 30 30 30 31 32 33 33 32 33 34 31 25 21 19 18 18 18 17 16 14 12 10
38 41 43 45 46 46 47 47 47 47 47 46 45 44 42 41 41 39 38 37 35 33 31 29 28 27 27 26 25 23 21 20 19 18 17 16 15 14 14 14 14 15 16 17 18 20 21 21 22 22 21 22 23 23 24 24 24 24 26 27 28 28 29 29 29 29 29 30 31 31 31 31 32 31 26 21 18 17 16 16 15 14 11 10 8
35 39 42 45 46 47 47 48 48 47 47 46 46 45 44 44 43 41 40 38 35 33 31 30 29 29 28 26 25 23 21 20 19 18 18 17 16 15 15 14 14 15 15 16 17 19 20 21 22 22 22 22 23 23 23 23 23 23 24 25 26 26 27 27 27 27 27 27 29 29 29 29 30 30 26 21 16 15 14 13 13 12 10 8 7
32 36 39 43 45 47 48 48 48 48 48 47 47 46 46 45 43 42 40 38 35 33 32 30 30 29 28 26 25 23 22 20 19 19 19 18 17 16 15 15 14 14 15 15 17 18 19 20 21 22 23 23 23 23 23 23 23 23 23 23 24 25 25 25 25 25 25 25 26 27 27 27 27 28 26 21 16 13 12 11 10 10 8 7 6
30 33 36 39 42 46 48 49 49 49 49 48 48 47 46 45 43 41 39 37 35 33 32 31 30 29 28 26 25 24 22 21 20 20 20 19 17 16 16 15 15 14 14 15 17 18 19 20 21 22 23 23 24 23 23 24 24 24 23 22 23 23 24 24 24 24 23 23 23 24 25 24 24 25 25 21 16 12 10 9 9 8 7 5 4
31 32 34 36 39 43 46 48 50 50 49 48 48 47 46 45 43 41 39 37 35 33 32 31 30 29 27 26 25 24 23 22 21 21 20 19 18 17 16 15 15 15 14 15 16 17 19 20 21 22 23 23 24 24 24 24 24 24 24 23 22 22 23 23 23 23 22 22 21 22 23 22 21 21 22 20 16 12 9 8 7 6 5 5 4
34 34 35 36 38 40 43 46 48 49 49 48 47 47 46 44 43 40 38 36 34 33 32 31 31 29 28 27 26 25 23 22 21 21 20 19 18 17 16 16 15 15 15 15 16 17 18 20 20 21 22 23 24 24 24 24 25 25 25 24 23 22 22 23 23 22 22 21 21 20 21 21 20 19 18 18 16 12 9 7 6 5 5 4 3
35 35 36 37 38 39 41 44 46 47 48 47 47 47 45 43 41 38 36 35 34 33 33 32 31 30 28 27 26 25 24 22 22 21 20 19 18 17 16 16 16 15 15 16 16 17 19 20 20 21 23 23 24 25 25 25 25 25 25 25 24 23 22 22 22 22 22 21 21 20 19 20 19 18 17 16 14 12 9 7 5 4 4 3 2
Wind_Direction
220 220 219 219 218 216 214 212 209 206 202 199 199 197 196 196 195 196 192 190 192 192 193 192 193 197 198 202 212 226 254 274 287 296 299 303 306 308 310 313 315 318 321 323 324 325 327 327 326 326 327 327 327 325 325 325 324 324 325 323 321 320 319 316 311 309 313 316 316 318 320 319 319 319 318 317 317 316 315 314 314 313 312 312 311
216 217 216 213 210 205 202 199 195 194 193 193 193 192 193 193 192 192 190 190 191 190 192 195 196 199 203 212 227 242 261 271 280 288 293 297 300 304 308 312 316 319 321 322 323 324 324 324 324 323 324 325 325 324 323 323 323 322 322 321 319 319 318 315 312 309 312 316 318 318 319 318 317 318 318 318 318 317 315 314 315 314 313 313 312
209 208 206 201 197 193 191 190 188 189 189 190 190 191 192 190 189 189 189 191 192 191 193 195 199 205 211 224 238 249 261 269 277 284 290 295 300 304 308 312 316 318 319 320 321 322 322 322 322 321 322 323 323 323 322 322 322 322 322 321 320 319 318 316 314 312 312 314 317 318 318 318 318 318 320 320 319 319 318 317 316 316 315 314 314
198 196 192 189 186 185 185 185 186 188 188 190 191 190 190 189 188 188 189 192 194 194 196 198 203 212 220 233 244 252 260 269 278 287 293 298 303 307 310 314 316 318 319 320 320 320 321 321 320 320 320 321 321 322 321 321 322 322 322 322 321 320 320 319 318 316 314 314 316 317 318 319 319 319 320 320 320 319 318 317 317 317 316 316 315
188 185 182 182 181 182 184 185 187 188 189 190 190 190 190 190 189 190 191 194 196 197 200 204 211 220 230 240 248 255 264 274 283 291 296 301 305 309 313 316 318 320 320 319 319 319 319 319 319 319 320 321 322 322 322 322 323 323 322 322 322 322 322 323 323 321 319 317 318 318 319 320 320 320 321 320 319 319 318 317 317 317 316 315 313
180 179 179 181 183 184 186 187 188 189 190 190 190 189 189 190 191 191 192 195 199 202 206 212 219 227 237 244 251 259 270 280 286 293 299 304 310 313 315 318 318 319 318 317 317 317 318 318 319 320 321 323 323 323 324 324 324 324 324 324 325 326 326 326 326 325 323 321 320 319 320 321 320 319 321 321 318 318 318 318 317 315 315 315 314
179 180 182 185 187 189 188 189 190 190 191 190 189 189 189 191 193 193 194 198 203 207 212 218 225 232 239 246 255 265 274 282 290 297 304 309 312 313 315 316 317 316 315 315 315 315 317 318 320 322 324 324 325 325 325 325 325 327 328 328 328 328 329 329 329 327 325 323 321 319 319 319 318 318 320 320 318 317 318 318 316 315 316 315 314
184 186 188 190 192 192 191 191 191 191 191 190 189 190 191 192 193 195 198 201 205 211 217 222 228 234 241 249 258 268 278 286 296 303 307 310 311 311 313 314 314 314 312 313 315 316 318 320 321 324 324 324 325 325 326 327 327 329 330 331 331 330 330 331 330 329 326 323 321 319 318 318 318 318 319 319 318 317 317 317 316 315 315 315 314
191 193 194 195 195 195 194 193 192 192 191 190 190 192 193 194 195 198 202 205 208 213 219 223 230 235 243 253 261 272 283 292 300 304 306 308 309 311 314 314 313 312 312 314 316 317 319 321 322 323 323 324 325 325 327 328 329 329 330 331 332 332 331 331 330 328 326 323 321 320 318 317 317 318 317 317 317 316 316 317 315 314 315 316 315
198 199 199 197 196 197 196 195 194 192 191 192 193 193 194 196 199 201 204 207 210 215 219 223 230 237 245 256 267 278 289 296 301 304 306 308 310 312 313 312 312 313 314 316 317 318 319 320 321 322 322 323 324 325 327 328 329 330 330 331 332 332 331 331 330 329 326 323 320 319 317 316 317 317 316 317 317 316 316 316 315 315 316 316 315
202 202 201 200 199 198 198 196 194 193 192 193 194 195 197 199 202 204 207 209 212 215 219 224 231 240 249 260 272 283 292 297 301 304 306 309 311 312 311 311 312 314 316 317 318 318 319 320 322 323 323 324 324 326 327 328 329 330 331 332 333 333 333 332 331 330 327 322 320 319 316 314 316 317 317 317 317 316 316 316 315 315 315 313 313
204 204 203 202 200 199 198 197 195 194 195 195 197 198 200 202 204 207 208 210 212 214 219 226 233 243 253 263 275 284 291 297 300 304 308 310 311 311 311 312 313 315 316 317 318 319 320 322 324 324 325 326 326 327 327 328 330 331 333 334 334 335 335 333 331 329 325 321 319 319 317 315 316 317 317 318 317 316 317 316 315 315 314 312 311
206 205 204 203 201 199 199 198 197 197 197 198 199 200 202 205 206 208 208 209 212 215 220 227 233 244 255 265 277 285 291 297 301 304 308 309 310 311 311 313 314 315 316 316 318 320 322 323 324 325 326 327 327 328 329 330 331 332 334 335 335 335 335 334 333 328 323 319 316 316 318 317 315 315 316 317 316 315 315 314 314 315 314 312 310
208 206 204 203 201 200 200 200 200 199 198 199 201 202 205 206 206 207 208 210 213 216 221 228 235 246 258 267 277 284 291 297 301 305 307 308 309 310 311 312 313 313 314 316 318 321 323 324 325 326 327 329 330 331 331 332 332 333 334 335 335 335 334 335 335 331 328 323 316 315 319 318 315 315 316 317 315 314 313 312 312 312 312 311 310
209 206 204 203 202 202 202 201 201 201 200 201 203 204 206 206 206 207 208 211 215 217 222 229 237 248 260 269 277 286 293 298 301 304 307 307 309 309 309 310 310 311 313 316 318 321 322 324 326 328 330 332 333 334 334 334 334 334 334 334 334 334 334 336 336 333 331 327 320 317 319 318 316 315 316 317 316 316 316 314 314 314 312 310 310
210 208 206 205 205 204 204 203 202 203 203 204 205 206 206 205 206 208 210 212 216 219 224 231 240 251 261 271 281 289 295 299 303 305 307 307 308 308 308 308 309 310 313 315 317 320 322 325 327 330 333 335 335 335 336 336 335 335 334 334 334 333 333 334 334 333 332 328 322 319 317 316 315 315 317 319 320 322 323 321 320 320 315 311 310
212 209 207 207 206 205 205 205 205 205 206 207 206 206 206 206 207 209 212 214 217 221 228 235 243 254 263 274 283 290 296 301 304 306 306 306 306 306 306 307 309 310 312 315 318 321 324 327 330 332 333 335 336 338 339 338 337 337 336 335 334 333 332 332 332 333 333 330 327 323 318 316 317 318 319 320 322 326 328 324 323 323 317 312 310
212 210 209 208 207 207 206 206 207 208 208 208 207 207 206 207 208 210 212 215 218 224 231 239 247 257 267 277 285 293 299 302 305 306 305 305 304 305 306 308 309 311 313 315 318 322 326 330 331 332 333 336 338 341 341 340 338 338 337 336 334 333 333 333 333 333 333 332 331 327 323 321 321 320 318 318 320 326 327 324 325 324 320 315 312
213 211 210 208 207 208 207 207 208 210 209 208 207 208 208 208 209 211 212 214 219 227 235 242 251 261 271 281 290 296 300 302 303 304 303 302 304 305 307 308 309 312 314 316 320 324 327 329 331 333 335 338 340 342 342 341 340 339 338 336 335 335 336 337 337 336 334 333 332 330 329 328 326 322 318 317 319 322 323 323 324 323 320 319 316
214 211 210 209 208 208 208 208 209 209 209 209 207 208 209 210 210 211 213 217 223 230 238 245 254 264 275 286 293 296 299 300 301 300 300 302 304 306 307 309 310 313 316 319 321 323 325 328 332 335 338 340 341 342 343 342 340 339 339 339 339 340 340 339 338 337 335 335 336 335 333 331 328 325 323 322 320 319 318 318 320 320 320 319 317
214 211 210 209 209 209 208 209 209 208 208 209 209 209 209 210 211 213 215 221 227 232 240 247 256 267 278 287 292 294 296 297 297 299 301 302 305 306 308 311 313 315 317 319 322 324 327 331 335 338 340 341 342 342 341 340 340 339 340 343 344 343 341 339 338 338 337 337 336 334 333 333 333 332 329 325 322 320 318 315 316 318 319 317 317
215 212 210 210 209 210 209 209 208 207 208 209 210 211 210 209 211 215 219 224 229 235 242 249 259 272 281 287 289 291 293 294 296 299 301 303 305 308 311 313 315 316 317 320 323 327 331 334 337 340 341 341 341 340 339 338 338 339 341 343 342 341 339 339 339 338 337 336 333 332 333 334 333 331 328 325 323 323 322 318 317 319 318 316 317
214 212 211 210 210 210 210 209 209 208 209 210 210 211 211 211 213 217 221 226 232 237 245 254 266 276 280 283 285 287 290 293 297 299 301 303 306 309 311 313 314 316 318 322 325 329 332 335 337 339 340 339 339 338 337 337 337 338 339 338 337 337 338 339 339 338 336 335 334 334 334 333 330 329 330 330 329 328 328 327 326 325 323 320 318
214 212 211 210 210 210 210 210 210 210 210 210 210 211 212 214 216 220 224 229 234 242 252 262 270 273 274 277 280 285 290 294 297 299 300 303 306 309 311 313 314 317 321 326 329 331 334 335 336 336 337 337 337 336 335 336 337 337 337 335 335 336 337 339 339 338 337 338 337 334 332 330 329 330 332 335 335 334 334 334 332 330 328 326 322
214 212 211 211 211 211 211 211 211 211 210 211 212 213 215 217 219 223 227 231 238 248 256 262 265 267 271 275 280 286 291 294 297 299 301 304 306 308 310 313 317 322 326 329 331 332 333 334 333 334 335 335 334 334 334 335 336 336 336 336 337 338 339 341 341 341 341 341 338 334 332 331 330 330 333 336 337 337 337 336 334 332 331 329 325
214 213 212 212 212 212 213 212 211 211 210 211 213 215 218 220 223 226 230 235 243 251 256 260 263 265 270 275 281 288 292 295 297 299 300 303 305 308 312 316 321 326 328 329 330 330 331 332 333 334 335 334 333 333 333 334 335 336 338 339 341 342 343 344 345 345 344 341 337 335 334 332 331 332 335 338 337 337 338 337 335 333 332 330 326
216 214 213 213 213 213 214 214 213 213 212 213 214 216 218 221 224 228 234 241 249 254 256 259 261 265 270 277 283 289 291 294 295 296 298 301 304 309 315 319 323 326 327 328 329 330 331 333 334 334 332 330 330 331 332 334 336 338 341 343 345 345 347 348 348 347 345 342 338 336 335 336 337 338 339 338 337 337 339 338 335 333 332 332 329
217 216 215 214 214 215 215 215 216 215 215 215 216 218 220 222 226 231 238 246 251 254 256 258 261 266 273 280 284 288 290 291 292 294 297 302 308 313 318 321 323 326 327 327 329 330 332 333 332 331 329 328 330 331 334 338 341 343 345 347 347 347 348 349 349 349 347 344 341 339 339 341 342 341 339 338 337 338 340 339 336 334 334 335 335
217 217 216 216 216 216 216 216 216 217 217 217 218 219 221 224 229 234 241 247 250 252 254 257 262 269 276 281 284 286 287 288 291 295 300 307 313 317 320 322 324 326 327 327 328 329 331 332 331 330 331 332 333 335 338 340 343 346 349 350 349 349 350 350 350 350 350 348 344 342 343 343 342 341 340 339 338 339 340 339 338 336 337 338 339
217 217 217 217 218 217 217 217 217 217 218 219 220 220 221 225 229 234 241 246 248 251 254 258 265 272 277 280 281 282 284 287 291 297 304 310 315 318 319 321 323 325 326 327 328 330 332 332 332 333 335 336 337 339 340 341 342 345 348 351 351 350 350 350 350 351 352 351 348 345 345 343 341 341 341 340 339 338 339 340 339 338 340 340 340
220 219 219 219 220 220 220 219 219 218 218 220 222 224 226 229 232 235 240 245 248 251 255 260 267 272 275 277 278 281 285 289 294 300 305 310 313 316 318 320 321 323 325 328 330 331 331 332 334 336 338 338 339 341 343 344 346 347 348 350 351 350 349 349 350 351 353 354 351 347 344 342 342 342 341 339 339 339 339 340 340 340 341 342 341
223 223 222 222 222 221 221 221 220 221 221 222 223 226 229 232 235 237 241 244 248 251 256 261 265 269 272 274 278 283 287 291 295 299 303 308 312 315 317 319 321 323 325 328 329 329 330 332 335 337 338 339 341 343 345 347 348 350 350 350 350 351 351 350 351 352 355 356 353 348 343 340 341 342 341 340 341 340 340 341 341 340 341 342 342
225 226 226 225 224 223 223 222 223 224 225 226 227 230 232 235 238 240 242 245 248 252 256 260 264 267 269 273 277 281 285 288 292 296 302 308 312 314 315 317 318 321 324 326 326 326 329 333 335 336 339 340 342 343 345 347 349 350 352 351 350 350 350 351 351 353 355 357 355 350 344 340 339 340 341 342 342 341 341 342 343 341 341 343 342
225 227 228 229 229 228 226 226 226 226 227 229 231 233 236 238 241 243 245 247 250 255 258 260 263 266 269 273 276 279 281 285 290 296 303 307 309 310 312 313 317 320 321 322 323 324 327 331 333 336 339 341 342 342 344 346 347 349 350 351 350 350 350 351 352 353 355 357 356 353 347 342 340 341 342 343 343 342 342 343 343 342 343 344 343
226 227 228 229 230 231 231 230 230 230 230 231 233 235 237 239 242 244 246 248 252 256 258 260 262 265 269 272 274 276 279 284 290 296 301 304 305 306 308 311 314 315 315 316 320 323 325 329 333 336 338 340 341 342 342 344 346 347 348 349 349 349 350 350 352 353 355 357 357 355 349 344 342 343 344 344 344 344 344 343 344 343 344 344 343
228 228 229 229 230 230 231 232 232 233 233 235 236 238 239 241 243 245 246 248 251 254 255 257 260 263 266 269 271 274 277 282 288 293 297 300 302 304 306 308 309 309 311 315 320 324 326 329 332 334 336 338 339 340 341 343 344 344 345 347 348 349 350 350 351 352 354 356 357 355 351 346 343 344 346 346 345 345 345 344 344 345 345 345 344
230 230 230 230 230 230 230 231 233 234 235 237 238 239 240 241 243 244 245 247 249 252 254 256 258 261 264 266 268 272 275 280 285 289 292 296 299 301 303 305 307 309 313 317 321 324 326 329 331 333 335 337 338 339 340 341 342 342 343 345 346 348 349 349 350 351 352 355 356 355 352 348 344 343 346 347 346 346 346 346 346 347 347 346 345
232 232 232 232 233 232 232 232 234 235 236 237 238 239 241 242 243 244 245 246 248 250 252 255 257 259 261 264 267 271 274 277 281 285 287 292 296 298 300 302 305 309 313 316 321 325 328 330 332 333 334 335 336 337 338 339 340 341 342 343 345 347 347 348 348 350 351 354 356 356 353 349 345 342 345 348 348 347 348 349 349 349 348 348 347
234 234 234 234 235 235 235 235 236 236 238 239 240 241 242 243 244 244 244 245 248 250 252 255 257 259 261 264 267 270 272 274 277 280 283 289 292 293 294 297 302 306 310 314 320 326 329 331 333 334 333 334 335 335 335 337 338 340 341 342 343 345 346 347 347 348 350 353 356 356 354 351 346 342 343 347 348 348 349 351 351 350 350 351 350
238 238 237 237 237 237 237 237 238 239 240 241 242 243 244 244 244 244 245 246 249 251 253 255 256 258 261 263 265 267 267 268 271 273 276 281 284 285 289 294 299 304 308 313 319 324 328 330 332 333 334 334 334 334 334 335 336 338 339 341 342 344 346 346 346 347 349 352 354 356 354 352 348 343 341 344 348 350 351 352 352 350 350 351 352
240 240 240 239 239 239 239 239 240 241 242 243 244 245 245 245 245 245 245 247 248 250 251 251 252 256 259 260 261 262 262 263 264 265 267 272 276 280 286 293 298 304 308 312 316 321 325 328 329 331 332 333 333 334 333 333 333 335 337 339 340 342 344 345 345 345 347 349 352 355 355 353 349 345 342 343 348 353 354 353 352 351 351 353 355
243 242 242 242 242 242 242 243 243 244 244 244 245 245 245 245 245 245 245 246 247 247 248 249 251 255 258 258 257 258 258 259 262 263 266 270 274 279 285 292 297 302 306 309 314 317 321 324 326 327 328 329 330 331 331 331 331 333 334 336 338 340 342 343 344 343 345 348 351 354 355 353 349 345 342 343 348 354 356 355 353 352 352 355 360
246 246 245 245 245 246 246 246 246 246 246 247 247 246 245 245 245 245 245 246 247 247 247 250 253 254 255 255 257 258 258 259 261 263 266 270 273 278 284 290 295 300 304 307 312 315 318 321 324 325 325 326 326 328 328 329 330 331 332 333 335 337 339 340 341 341 343 345 348 352 355 354 350 345 343 345 349 355 358 357 355 354 354 359 6
249 249 248 248 248 248 248 248 248 248 249 249 248 247 247 246 246 246 246 247 247 247 249 250 251 251 253 255 256 256 256 257 259 262 265 269 272 276 281 286 291 296 301 306 310 313 316 319 322 324 324 323 322 323 323 325 326 328 328 329 331 333 335 337 338 340 342 343 346 349 352 354 351 346 343 345 349 354 358 359 357 356 357 3 14
251 251 251 251 251 251 251 251 250 250 250 249 249 248 248 247 246 246 246 246 246 248 248 247 247 250 253 253 253 253 253 255 257 260 264 267 269 272 277 282 287 292 298 303 307 311 314 317 319 322 323 322 321 320 319 319 321 322 324 325 327 329 331 332 334 337 339 341 342 345 348 352 352 348 344 343 348 353 357 360 0 360 2 10 22
255 254 253 253 253 253 253 253 252 251 251 250 249 248 248 247 246 246 245 245 246 247 245 244 247 250 251 251 250 250 251 253 256 259 262 264 266 270 274 279 284 289 295 300 304 307 311 314 316 320 321 321 321 320 318 317 317 317 318 321 322 323 325 327 328 332 336 338 339 341 344 348 351 349 345 342 345 350 355 359 3 6 10 19 28
259 257 256 255 255 255 254 254 253 252 251 250 249 248 247 246 245 244 244 244 244 244 242 243 247 249 249 249 249 249 249 251 254 257 259 260 263 267 271 275 281 286 293 298 301 304 309 312 314 317 319 320 320 321 320 318 317 315 314 316 317 318 320 321 323 327 331 334 336 337 339 343 348 349 346 343 343 348 353 358 4 11 19 28 36
265 261 258 257 256 256 255 254 253 252 251 250 248 247 247 246 244 244 243 243 243 242 242 244 246 247 246 246 246 245 246 249 251 253 254 256 260 264 268 273 279 285 290 296 299 303 307 310 312 315 317 317 318 319 320 319 318 316 313 312 312 314 316 317 319 322 326 329 331 332 334 338 343 346 346 344 342 345 351 357 3 11 20 30 39
272 269 265 261 258 256 255 255 254 253 252 251 249 248 247 246 244 243 242 242 241 242 243 245 246 245 244 243 242 242 243 245 247 248 250 253 256 262 267 272 278 283 289 294 297 301 305 308 310 312 314 315 316 318 319 319 318 317 315 312 310 310 311 313 315 317 319 323 325 327 329 333 338 341 344 345 344 343 347 355 3 11 18 28 36
275 273 271 267 263 260 257 256 255 254 253 252 250 249 247 245 244 243 243 242 242 244 246 247 246 245 244 242 240 240 241 242 244 245 248 250 255 260 265 271 276 283 288 293 297 301 304 306 308 310 312 313 315 316 317 317 317 316 316 314 311 308 307 308 311 313 314 316 319 321 323 327 331 334 338 342 344 344 346 353 4 12 17 24 33
277 275 273 271 268 264 260 256 255 254 253 251 250 248 247 246 245 245 245 245 246 247 248 247 245 244 242 240 239 240 241 241 241 242 245 249 254 258 263 269 275 282 288 293 298 302 304 306 308 310 311 312 314 314 315 315 315 314 314 314 313 310 307 305 306 309 310 310 312 315 317 320 323 326 329 333 338 341 343 345 355 9 14 11 7
Height
1521 1523 1525 1527 1529 1532 1534 1536 1538 1540 1542 1544 1545 1547 1549 1550 1552 1553 1554 1556 1557 1558 1559 1559 1560 1560 1561 1561 1561 1561 1561 1562 1562 1562 1562 1561 1561 1561 1561 1560 1560 1559 1558 1557 1556 1554 1553 1551 1549 1548 1547 1545 1543 1542 1540 1538 1536 1534 1533 1530 1527 1526 1523 1519 1513 1502 1495 1495 1492 1489 1487 1484 1479 1477 1473 1468 1465 1463 1459 1455 1452 1448 1443 1439 1436
1518 1521 1523 1525 1528 1530 1532 1534 1536 1538 1540 1542 1544 1546 1547 1549 1551 1552 1553 1555 1556 1557 1557 1558 1559 1559 1560 1560 1560 1560 1560 1560 1560 1560 1560 1560 1560 1560 1560 1559 1559 1558 1557 1556 1554 1553 1551 1549 1547 1546 1545 1543 1542 1540 1537 1536 1534 1532 1530 1528 1524 1523 1520 1516 1512 1503 1493 1488 1486 1483 1481 1478 1473 1470 1467 1462 1458 1455 1451 1447 1445 1441 1437 1433 1429
1517 1519 1521 1524 1526 1529 1531 1533 1535 1537 1539 1541 1542 1544 1546 1548 1549 1551 1552 1553 1554 1555 1556 1557 1558 1558 1558 1558 1558 1559 1559 1559 1559 1559 1559 1559 1559 1559 1558 1558 1557 1557 1556 1554 1553 1551 1549 1547 1546 1544 1543 1541 1539 1538 1535 1533 1531 1529 1527 1525 1522 1519 1517 1514 1509 1503 1494 1485 1481 1477 1474 1471 1467 1464 1461 1457 1453 1449 1444 1440 1437 1434 1430 1426 1422
1515 1518 1520 1523 1525 1528 1530 1532 1534 1536 1538 1539 1541 1543 1545 1546 1548 1550 1551 1552 1553 1554 1555 1556 1556 1557 1557 1557 1557 1557 1557 1558 1558 1558 1558 1558 1558 1558 1557 1557 1556 1555 1554 1553 1551 1549 1547 1546 1544 1542 1540 1539 1537 1535 1533 1531 1528 1526 1524 1521 1518 1515 1513 1510 1506 1502 1494 1485 1479 1475 1471 1466 1462 1459 1455 1451 1447 1444 1440 1435 1431 1427 1424 1420 1417
1515 1517 1520 1522 1524 1527 1528 1530 1533 1534 1536 1538 1540 1542 1544 1545 1547 1548 1550 1551 1552 1553 1554 1555 1555 1555 1555 1555 1556 1556 1556 1557 1557 1557 1557 1557 1556 1556 1555 1555 1554 1553 1552 1550 1549 1547 1545 1544 1542 1540 1538 1536 1534 1532 1530 1528 1525 1523 1520 1517 1514 1511 1508 1505 1501 1498 1492 1484 1476 1472 1468 1463 1457 1454 1451 1447 1441 1437 1435 1431 1426 1421 1418 1415 1412
1516 1518 1520 1522 1524 1526 1528 1530 1532 1534 1535 1537 1539 1541 1542 1544 1546 1547 1549 1550 1551 1552 1553 1553 1553 1554 1554 1554 1554 1555 1555 1555 1555 1556 1555 1555 1555 1554 1553 1553 1552 1551 1550 1548 1547 1545 1543 1541 1539 1537 1535 1532 1530 1528 1526 1523 1520 1518 1515 1512 1509 1505 1502 1499 1496 1492 1487 1481 1474 1468 1463 1459 1453 1448 1447 1444 1438 1433 1429 1425 1421 1417 1413 1408 1403
1516 1518 1520 1522 1524 1525 1527 1529 1531 1533 1534 1536 1538 1539 1541 1543 1544 1546 1547 1548 1549 1550 1551 1551 1552 1552 1552 1553 1553 1553 1554 1554 1554 1554 1553 1553 1553 1552 1551 1551 1550 1549 1548 1546 1545 1543 1541 1539 1537 1534 1532 1529 1527 1524 1521 1519 1516 1513 1510 1506 1503 1500 1496 1493 1490 1486 1481 1476 1470 1464 1459 1455 1450 1445 1441 1439 1436 1431 1428 1422 1415 1411 1410 1405 1398
1515 1518 1519 1521 1523 1525 1527 1529 1530 1532 1533 1535 1536 1538 1539 1541 1543 1544 1545 1547 1548 1549 1549 1550 1550 1550 1551 1551 1551 1552 1552 1552 1552 1552 1551 1551 1551 1550 1549 1549 1548 1547 1546 1544 1542 1540 1538 1536 1534 1532 1530 1527 1524 1521 1518 1515 1511 1508 1505 1502 1499 1495 1492 1488 1484 1481 1476 1471 1466 1461 1456 1450 1446 1442 1438 1435 1431 1427 1425 1422 1414 1408 1406 1403 1398
1515 1517 1519 1521 1523 1524 1526 1527 1528 1530 1532 1533 1535 1536 1538 1539 1541 1542 1544 1545 1546 1547 1548 1548 1548 1549 1549 1549 1550 1550 1550 1550 1550 1550 1550 1549 1549 1548 1547 1546 1545 1544 1543 1541 1540 1538 1536 1534 1532 1529 1527 1524 1521 1518 1515 1512 1508 1505 1502 1498 1495 1491 1488 1485 1481 1477 1473 1467 1462 1458 1453 1447 1443 1440 1436 1433 1430 1424 1421 1419 1413 1407 1403 1399 1394
1513 1515 1517 1519 1521 1523 1524 1525 1527 1528 1530 1532 1533 1535 1536 1538 1539 1541 1542 1543 1544 1545 1546 1546 1547 1547 1548 1548 1548 1548 1548 1548 1548 1547 1547 1547 1546 1546 1545 1543 1542 1541 1539 1538 1537 1535 1533 1531 1529 1527 1524 1521 1519 1516 1513 1510 1506 1503 1500 1496 1493 1489 1485 1481 1478 1474 1469 1464 1459 1455 1451 1446 1442 1439 1435 1432 1429 1424 1419 1415 1409 1404 1400 1395 1388
1512 1514 1516 1518 1519 1521 1522 1524 1525 1527 1529 1530 1532 1534 1535 1536 1538 1539 1541 1542 1543 1543 1544 1545 1545 1545 1546 1546 1546 1546 1546 1546 1546 1545 1545 1544 1544 1543 1542 1541 1539 1538 1536 1535 1533 1532 1530 1528 1526 1523 1521 1518 1515 1512 1509 1507 1504 1500 1497 1494 1490 1487 1483 1478 1474 1470 1466 1461 1457 1453 1449 1444 1440 1437 1434 1430 1426 1421 1417 1413 1407 1402 1399 1394 1386
1510 1512 1514 1515 1517 1519 1521 1522 1524 1526 1527 1529 1531 1532 1534 1535 1537 1538 1539 1540 1541 1542 1542 1543 1543 1544 1544 1544 1544 1544 1544 1544 1544 1543 1542 1542 1541 1540 1539 1537 1536 1535 1533 1532 1530 1528 1526 1524 1522 1519 1517 1514 1511 1509 1506 1503 1500 1496 1493 1490 1487 1483 1480 1476 1472 1468 1464 1459 1453 1449 1447 1443 1438 1434 1431 1428 1424 1419 1415 1410 1406 1402 1398 1394 1387
1508 1510 1512 1513 1515 1517 1519 1521 1523 1524 1526 1527 1529 1530 1532 1533 1535 1536 1538 1539 1540 1540 1541 1541 1542 1542 1542 1542 1542 1542 1542 1542 1541 1541 1540 1539 1538 1537 1536 1534 1533 1532 1530 1528 1527 1524 1522 1520 1517 1515 1513 1510 1507 1504 1501 1498 1495 1492 1489 1486 1483 1479 1476 1473 1470 1466 1462 1458 1452 1447 1444 1441 1436 1432 1429 1426 1421 1417 1413 1408 1404 1401 1396 1391 1387
1506 1507 1509 1512 1514 1516 1518 1519 1521 1522 1524 1525 1527 1528 1530 1531 1533 1534 1536 1537 1538 1539 1539 1539 1540 1540 1540 1540 1540 1540 1540 1540 1539 1538 1537 1536 1535 1534 1533 1532 1530 1529 1527 1526 1523 1521 1519 1516 1514 1511 1508 1506 1503 1500 1496 1493 1490 1487 1484 1481 1478 1475 1472 1469 1466 1462 1458 1455 1450 1445 1441 1439 1434 1429 1426 1424 1420 1415 1411 1406 1401 1398 1394 1389 1385
1503 1505 1507 1510 1512 1514 1516 1517 1519 1520 1522 1524 1525 1527 1528 1529 1531 1532 1533 1535 1536 1537 1537 1538 1538 1538 1538 1538 1538 1538 1538 1537 1537 1536 1535 1534 1533 1532 1531 1529 1528 1527 1525 1523 1521 1518 1516 1513 1510 1507 1504 1501 1499 1496 1492 1489 1486 1483 1480 1477 1474 1471 1468 1465 1461 1457 1453 1450 1447 1442 1438 1435 1432 1428 1424 1422 1418 1414 1409 1404 1399 1396 1391 1386 1381
1501 1503 1505 1507 1509 1511 1513 1515 1517 1518 1520 1522 1523 1525 1526 1527 1528 1530 1531 1532 1534 1535 1535 1536 1536 1536 1536 1536 1536 1536 1535 1535 1534 1533 1532 1531 1531 1530 1528 1527 1525 1524 1522 1520 1518 1516 1513 1511 1507 1504 1501 1498 1495 1493 1490 1486 1482 1479 1476 1473 1470 1467 1464 1461 1457 1454 1450 1446 1443 1439 1435 1432 1429 1425 1422 1419 1415 1410 1405 1400 1396 1393 1388 1382 1377
1498 1500 1502 1505 1507 1509 1511 1513 1515 1516 1518 1520 1521 1523 1524 1526 1526 1527 1529 1530 1531 1532 1533 1534 1534 1534 1534 1534 1534 1534 1533 1532 1531 1530 1529 1529 1528 1527 1526 1524 1522 1521 1519 1517 1515 1513 1510 1507 1504 1501 1498 1495 1492 1490 1487 1483 1479 1476 1472 1468 1465 1462 1459 1456 1452 1449 1446 1442 1439 1435 1431 1428 1425 1421 1418 1415 1412 1408 1403 1397 1393 1390 1385 1380 1374
1495 1498 1500 1502 1505 1507 1509 1511 1513 1515 1517 1518 1520 1521 1522 1524 1525 1525 1526 1528 1529 1530 1531 1531 1532 1532 1532 1532 1531 1531 1530 1530 1529 1528 1527 1526 1525 1524 1523 1521 1519 1517 1516 1514 1512 1509 1507 1504 1501 1499 1496 1493 1489 1486 1483 1480 1476 1472 1468 1465 1461 1458 1454 1450 1445 1442 1439 1436 1433 1429 1426 1423 1420 1416 1413 1410 1408 1405 1401 1396 1392 1388 1383 1378 1373
1493 1495 1498 1501 1503 1505 1507 1509 1511 1513 1515 1516 1518 1519 1520 1521 1522 1523 1524 1525 1527 1528 1528 1529 1529 1529 1529 1529 1529 1528 1528 1527 1526 1525 1524 1523 1522 1521 1519 1517 1515 1514 1512 1510 1508 1506 1504 1501 1499 1496 1493 1490 1487 1483 1480 1477 1473 1470 1466 1463 1459 1455 1450 1446 1441 1437 1433 1430 1427 1423 1419 1417 1414 1411 1408 1405 1403 1400 1398 1394 1390 1386 1382 1377 1372
1491 1494 1497 1499 1501 1503 1505 1508 1509 1511 1513 1514 1516 1517 1518 1519 1520 1521 1522 1523 1524 1525 1526 1526 1527 1527 1527 1527 1526 1526 1525 1525 1524 1523 1522 1521 1519 1517 1516 1514 1512 1510 1508 1506 1504 1502 1500 1498 1495 1493 1489 1486 1483 1480 1477 1474 1471 1468 1465 1461 1456 1452 1448 1445 1441 1437 1432 1427 1423 1419 1415 1412 1409 1406 1403 1400 1398 1395 1393 1390 1387 1384 1380 1376 1372
1489 1492 1495 1497 1499 1501 1504 1506 1507 1509 1511 1512 1514 1515 1516 1517 1518 1519 1520 1521 1522 1523 1523 1524 1524 1524 1524 1524 1524 1523 1523 1522 1521 1520 1519 1518 1516 1514 1513 1510 1508 1506 1504 1502 1501 1498 1496 1494 1491 1488 1485 1483 1480 1477 1475 1472 1469 1466 1462 1458 1455 1451 1447 1443 1440 1436 1431 1426 1421 1417 1413 1409 1405 1401 1398 1395 1393 1390 1388 1385 1383 1381 1378 1374 1370
1487 1490 1492 1495 1497 1499 1501 1503 1505 1507 1508 1510 1511 1512 1513 1515 1516 1517 1518 1519 1519 1520 1521 1521 1521 1521 1522 1521 1521 1521 1520 1519 1519 1517 1516 1515 1513 1511 1509 1507 1505 1503 1501 1499 1497 1495 1492 1490 1487 1484 1482 1479 1477 1475 1472 1470 1466 1463 1460 1457 1453 1450 1446 1442 1437 1433 1428 1424 1420 1415 1410 1406 1401 1397 1394 1390 1388 1385 1383 1380 1378 1376 1374 1372 1368
1485 1487 1489 1492 1495 1497 1499 1501 1503 1504 1506 1507 1509 1510 1511 1513 1514 1515 1515 1516 1517 1518 1518 1519 1519 1519 1519 1519 1519 1518 1518 1516 1515 1514 1513 1512 1510 1508 1507 1505 1502 1500 1498 1496 1494 1491 1489 1486 1483 1481 1479 1477 1475 1472 1469 1467 1464 1460 1457 1454 1451 1447 1443 1439 1435 1430 1426 1421 1417 1411 1407 1403 1399 1394 1390 1387 1383 1381 1378 1376 1374 1372 1369 1367 1365
1482 1484 1487 1490 1492 1495 1497 1499 1500 1502 1504 1505 1507 1508 1509 1510 1511 1512 1513 1513 1514 1515 1515 1516 1516 1517 1517 1517 1516 1515 1514 1513 1512 1511 1510 1509 1507 1506 1504 1502 1500 1498 1496 1493 1491 1488 1485 1483 1481 1479 1476 1474 1472 1469 1467 1464 1461 1458 1455 1452 1448 1445 1440 1436 1431 1427 1422 1417 1413 1408 1404 1401 1396 1392 1388 1384 1381 1378 1375 1373 1371 1368 1365 1362 1360
1479 1482 1485 1488 1490 1492 1494 1496 1498 1500 1501 1503 1504 1506 1507 1508 1509 1509 1510 1511 1511 1512 1513 1513 1514 1514 1514 1514 1513 1512 1511 1510 1509 1508 1507 1505 1504 1503 1501 1499 1497 1495 1492 1490 1488 1486 1484 1481 1479 1477 1474 1471 1469 1466 1464 1461 1458 1455 1453 1449 1445 1441 1437 1432 1428 1424 1419 1414 1410 1405 1401 1397 1393 1390 1386 1383 1379 1376 1373 1370 1367 1364 1362 1358 1355
1478 1480 1483 1485 1487 1489 1491 1493 1495 1497 1499 1501 1502 1503 1504 1505 1506 1507 1507 1508 1509 1509 1510 1511 1511 1511 1511 1511 1510 1508 1508 1507 1506 1505 1504 1502 1501 1500 1498 1496 1494 1492 1490 1487 1486 1484 1482 1479 1477 1474 1471 1469 1466 1463 1461 1459 1456 1453 1449 1446 1442 1437 1433 1429 1425 1420 1416 1412 1407 1402 1398 1394 1390 1387 1383 1380 1377 1374 1371 1367 1363 1360 1358 1355 1351
1475 1478 1480 1482 1485 1487 1489 1491 1493 1494 1496 1498 1499 1500 1501 1502 1503 1504 1505 1505 1506 1507 1507 1508 1508 1508 1508 1507 1506 1505 1504 1503 1503 1502 1501 1500 1498 1497 1494 1492 1490 1489 1487 1485 1483 1481 1479 1477 1474 1472 1469 1467 1465 1462 1459 1456 1453 1450 1446 1442 1438 1434 1430 1426 1423 1419 1414 1410 1404 1399 1395 1391 1387 1383 1380 1378 1374 1372 1369 1366 1362 1358 1355 1352 1348
1473 1475 1478 1480 1482 1484 1487 1489 1490 1492 1494 1495 1496 1497 1498 1499 1500 1501 1502 1503 1503 1504 1504 1504 1504 1504 1504 1503 1503 1502 1502 1501 1500 1499 1498 1496 1495 1493 1491 1489 1487 1486 1484 1482 1480 1478 1476 1474 1472 1470 1467 1465 1462 1459 1456 1453 1449 1446 1443 1439 1435 1431 1428 1424 1421 1417 1412 1407 1401 1396 1392 1388 1384 1381 1378 1375 1372 1370 1367 1364 1361 1357 1353 1350 1347
1471 1474 1476 1478 1480 1482 1484 1486 1488 1489 1491 1492 1493 1494 1496 1497 1497 1498 1499 1500 1500 1501 1501 1501 1501 1500 1500 1500 1500 1499 1499 1498 1497 1495 1494 1492 1491 1489 1487 1486 1484 1483 1481 1479 1478 1476 1474 1472 1469 1467 1464 1461 1457 1454 1451 1448 1445 1442 1439 1436 1432 1428 1424 1421 1417 1413 1409 1404 1399 1394 1389 1385 1382 1380 1377 1373 1370 1368 1365 1363 1359 1355 1352 1349 1346
1469 1471 1473 1475 1477 1479 1481 1483 1484 1486 1487 1489 1490 1491 1492 1493 1494 1494 1495 1496 1497 1497 1497 1497 1497 1496 1496 1497 1497 1496 1495 1494 1493 1492 1490 1489 1488 1486 1485 1483 1482 1480 1479 1477 1475 1473 1471 1469 1466 1463 1460 1457 1453 1450 1447 1444 1441 1438 1435 1433 1429 1425 1422 1418 1414 1411 1407 1402 1397 1393 1388 1384 1381 1378 1375 1372 1368 1366 1363 1361 1358 1354 1351 1348 1345
1466 1468 1470 1473 1475 1477 1478 1480 1481 1483 1484 1486 1487 1488 1489 1490 1490 1491 1492 1492 1493 1493 1493 1493 1493 1493 1493 1493 1493 1492 1491 1490 1489 1488 1487 1486 1485 1484 1482 1481 1479 1478 1476 1474 1472 1470 1468 1465 1463 1460 1457 1454 1451 1448 1445 1442 1438 1435 1432 1430 1427 1423 1420 1416 1412 1409 1404 1400 1396 1392 1388 1384 1380 1377 1374 1371 1368 1364 1362 1359 1357 1353 1350 1347 1344
1464 1466 1468 1471 1472 1474 1476 1477 1479 1480 1481 1482 1483 1484 1485 1486 1487 1488 1488 1489 1489 1489 1489 1489 1489 1489 1489 1489 1489 1488 1487 1486 1486 1485 1484 1483 1482 1480 1479 1477 1476 1474 1473 1471 1469 1467 1465 1463 1460 1457 1455 1452 1449 1446 1443 1440 1437 1434 1431 1428 1425 1422 1419 1415 1411 1407 1403 1399 1396 1392 1388 1384 1379 1376 1373 1371 1367 1364 1361 1358 1355 1352 1349 1347 1344
1463 1465 1467 1468 1469 1471 1473 1474 1476 1477 1478 1479 1480 1481 1482 1483 1483 1484 1485 1485 1485 1485 1485 1485 1486 1486 1486 1486 1485 1484 1484 1483 1483 1482 1481 1480 1478 1477 1476 1474 1473 1471 1470 1468 1466 1464 1462 1460 1458 1455 1453 1450 1447 1444 1441 1438 1436 1433 1430 1427 1424 1421 1418 1415 1411 1407 1403 1399 1396 1392 1388 1384 1380 1375 1372 1370 1367 1364 1360 1357 1355 1352 1349 1346 1344
1460 1462 1464 1466 1467 1469 1470 1471 1472 1474 1475 1476 1477 1478 1479 1479 1480 1481 1481 1481 1481 1481 1482 1482 1482 1482 1483 1482 1482 1481 1481 1480 1480 1478 1477 1476 1475 1474 1473 1472 1470 1468 1466 1465 1463 1461 1459 1457 1455 1452 1450 1447 1444 1442 1439 1437 1434 1431 1429 1426 1423 1420 1417 1414 1410 1406 1403 1399 1395 1391 1388 1384 1380 1375 1371 1368 1366 1363 1360 1357 1354 1351 1348 1346 1343
1457 1460 1462 1463 1465 1467 1468 1469 1470 1471 1472 1473 1474 1475 1475 1476 1476 1477 1477 1477 1478 1478 1478 1479 1479 1479 1479 1479 1478 1478 1478 1477 1476 1474 1473 1473 1472 1471 1470 1469 1467 1465 1464 1463 1461 1459 1456 1454 1452 1449 1447 1445 1442 1440 1437 1435 1432 1430 1427 1424 1422 1419 1416 1412 1408 1405 1402 1398 1394 1390 1386 1383 1380 1376 1372 1368 1365 1362 1359 1356 1354 1351 1348 1346 1343
1455 1457 1458 1460 1462 1463 1465 1466 1467 1468 1469 1470 1471 1471 1472 1472 1472 1473 1473 1473 1474 1474 1475 1475 1475 1476 1476 1475 1475 1475 1474 1473 1472 1471 1470 1469 1468 1468 1467 1466 1464 1463 1461 1460 1458 1456 1454 1451 1449 1447 1445 1443 1440 1438 1435 1433 1431 1428 1426 1423 1420 1417 1414 1410 1407 1403 1400 1397 1393 1389 1385 1382 1379 1375 1371 1368 1365 1362 1359 1356 1353 1351 1348 1346 1343
1452 1453 1455 1457 1458 1460 1461 1462 1464 1465 1465 1466 1467 1467 1468 1468 1468 1468 1469 1469 1470 1470 1471 1472 1472 1472 1472 1472 1472 1472 1471 1470 1469 1468 1467 1466 1465 1464 1464 1462 1461 1459 1458 1456 1455 1453 1451 1449 1447 1445 1443 1440 1438 1436 1434 1431 1429 1427 1424 1422 1419 1416 1413 1410 1407 1403 1399 1396 1392 1388 1384 1381 1378 1375 1371 1367 1364 1362 1359 1356 1353 1350 1347 1345 1343
1449 1450 1452 1454 1455 1457 1458 1459 1460 1461 1461 1462 1462 1463 1463 1463 1464 1464 1465 1465 1466 1467 1467 1467 1468 1468 1468 1469 1468 1468 1467 1467 1466 1465 1464 1463 1462 1461 1460 1459 1458 1456 1454 1453 1452 1450 1448 1446 1445 1442 1440 1438 1436 1434 1431 1429 1427 1425 1422 1420 1417 1415 1412 1409 1406 1403 1399 1395 1391 1388 1383 1380 1377 1374 1370 1367 1364 1361 1358 1355 1352 1350 1347 1345 1343
1446 1447 1449 1450 1452 1453 1454 1455 1456 1456 1457 1457 1458 1458 1458 1459 1459 1460 1460 1461 1461 1462 1463 1463 1464 1464 1464 1465 1465 1464 1464 1463 1463 1462 1461 1460 1459 1458 1458 1457 1455 1453 1452 1451 1449 1448 1446 1444 1442 1440 1438 1436 1434 1432 1429 1427 1425 1423 1420 1417 1415 1413 1410 1407 1404 1401 1397 1394 1390 1387 1383 1379 1376 1373 1370 1367 1363 1360 1358 1355 1352 1350 1347 1345 1343
1443 1444 1445 1446 1447 1448 1449 1450 1451 1451 1452 1453 1453 1453 1454 1454 1455 1455 1456 1457 1457 1458 1459 1459 1460 1461 1461 1461 1461 1460 1460 1460 1459 1459 1458 1457 1456 1456 1455 1454 1453 1451 1449 1448 1446 1445 1444 1442 1440 1438 1436 1434 1431 1429 1427 1425 1422 1420 1418 1416 1413 1411 1408 1405 1402 1399 1396 1393 1390 1386 1383 1379 1375 1372 1369 1366 1363 1360 1357 1355 1352 1350 1348 1346 1344
1439 1440 1441 1442 1443 1444 1444 1445 1446 1446 1447 1448 1448 1449 1449 1450 1451 1452 1452 1453 1453 1454 1454 1455 1456 1456 1457 1457 1457 1456 1456 1456 1456 1456 1455 1454 1454 1453 1452 1451 1450 1448 1446 1445 1443 1442 1441 1439 1438 1436 1433 1431 1429 1427 1425 1422 1420 1418 1416 1414 1411 1408 1406 1404 1401 1398 1395 1392 1389 1386 1382 1378 1374 1371 1368 1366 1363 1360 1357 1355 1353 1350 1348 1346 1344
1435 1436 1437 1438 1438 1439 1440 1440 1441 1442 1443 1443 1443 1444 1445 1446 1447 1447 1448 1448 1449 1449 1450 1450 1451 1452 1452 1453 1453 1453 1453 1452 1452 1452 1452 1451 1450 1450 1449 1448 1446 1445 1443 1442 1440 1439 1438 1437 1435 1433 1431 1429 1427 1424 1422 1420 1418 1415 1413 1411 1408 1406 1403 1401 1399 1396 1394 1391 1388 1385 1382 1378 1374 1371 1368 1365 1362 1360 1357 1355 1353 1350 1348 1346 1345
1431 1432 1433 1434 1434 1435 1436 1436 1437 1437 1438 1438 1439 1440 1441 1441 1442 1443 1443 1444 1445 1445 1445 1446 1446 1447 1448 1448 1448 1448 1448 1448 1448 1448 1448 1447 1446 1446 1445 1444 1443 1441 1440 1438 1437 1436 1434 1433 1432 1431 1429 1427 1424 1422 1420 1417 1415 1412 1410 1408 1406 1404 1401 1399 1397 1395 1392 1389 1386 1384 1381 1378 1374 1370 1367 1365 1362 1360 1357 1355 1353 1351 1349 1347 1345
1426 1427 1428 1429 1429 1430 1431 1431 1432 1433 1433 1434 1435 1436 1437 1437 1438 1438 1439 1440 1440 1441 1441 1442 1442 1443 1443 1444 1444 1444 1443 1444 1444 1444 1443 1443 1442 1442 1441 1441 1440 1439 1437 1435 1434 1432 1431 1430 1429 1428 1426 1424 1422 1420 1418 1416 1413 1411 1408 1406 1404 1402 1399 1397 1395 1393 1390 1387 1385 1382 1380 1377 1374 1370 1367 1364 1362 1360 1357 1355 1353 1351 1349 1348 1346
1421 1422 1423 1423 1424 1425 1426 1427 1427 1428 1429 1429 1430 1431 1432 1432 1433 1433 1434 1435 1436 1437 1437 1437 1438 1438 1439 1439 1439 1439 1439 1439 1440 1440 1440 1439 1439 1438 1438 1437 1437 1436 1434 1433 1431 1430 1428 1427 1426 1425 1424 1422 1420 1418 1416 1414 1412 1410 1407 1405 1402 1400 1398 1396 1394 1392 1389 1386 1384 1381 1379 1376 1374 1371 1367 1364 1362 1360 1358 1355 1354 1352 1350 1349 1347
1416 1416 1417 1418 1419 1419 1420 1421 1422 1422 1423 1424 1425 1425 1426 1427 1427 1428 1429 1430 1431 1432 1433 1433 1433 1434 1434 1435 1435 1435 1435 1435 1435 1436 1436 1436 1435 1435 1434 1434 1433 1432 1431 1430 1429 1427 1426 1424 1423 1422 1421 1419 1418 1416 1414 1412 1410 1408 1406 1403 1401 1399 1396 1395 1393 1391 1388 1386 1383 1381 1378 1376 1374 1371 1368 1365 1362 1360 1358 1356 1354 1353 1351 1350 1349
1411 1411 1412 1412 1413 1414 1415 1415 1416 1417 1417 1418 1419 1420 1420 1421 1422 1423 1424 1425 1426 1427 1428 1428 1429 1430 1430 1431 1431 1431 1432 1431 1431 1432 1432 1432 1432 1432 1431 1430 1430 1429 1428 1427 1426 1424 1423 1422 1420 1419 1418 1416 1415 1413 1412 1410 1408 1406 1404 1402 1399 1397 1395 1393 1391 1389 1387 1385 1383 1380 1378 1375 1373 1371 1368 1365 1363 1360 1359 1357 1355 1353 1352 1351 1351
1406 1406 1406 1406 1407 1408 1408 1409 1410 1410 1411 1412 1413 1414 1415 1417 1418 1419 1420 1421 1422 1422 1423 1424 1425 1425 1426 1427 1427 1428 1428 1427 1428 1428 1429 1429 1428 1428 1428 1427 1426 1425 1425 1424 1423 1422 1420 1418 1417 1416 1414 1413 1412 1410 1408 1406 1405 1403 1401 1399 1397 1395 1393 1391 1389 1388 1386 1384 1382 1380 1378 1375 1373 1371 1368 1366 1363 1361 1359 1357 1356 1355 1353 1352 1352
1401 1400 1401 1401 1401 1401 1402 1402 1403 1404 1406 1407 1408 1410 1411 1412 1413 1414 1415 1416 1417 1418 1420 1420 1421 1422 1422 1423 1424 1424 1424 1424 1424 1425 1425 1425 1425 1425 1424 1423 1423 1422 1421 1421 1420 1419 1417 1416 1414 1413 1411 1410 1408 1407 1405 1403 1401 1400 1398 1397 1395 1393 1391 1389 1387 1385 1384 1382 1381 1379 1377 1374 1373 1370 1368 1366 1363 1361 1359 1358 1356 1355 1354 1354 1353
1396 1395 1395 1395 1395 1395 1396 1396 1397 1399 1401 1402 1403 1404 1406 1407 1408 1410 1411 1412 1413 1414 1416 1417 1417 1418 1418 1419 1420 1420 1420 1420 1421 1422 1422 1422 1422 1421 1421 1420 1419 1418 1418 1417 1416 1415 1414 1413 1411 1410 1408 1407 1405 1403 1402 1400 1398 1396 1395 1393 1391 1390 1388 1387 1385 1383 1381 1380 1378 1377 1375 1373 1372 1370 1368 1366 1363 1361 1359 1358 1356 1356 1355 1354 1354
1391 1390 1390 1389 1389 1389 1389 1390 1391 1393 1395 1396 1397 1399 1400 1402 1404 1406 1407 1408 1409 1411 1412 1413 1413 1414 1414 1415 1416 1416 1416 1416 1417 1418 1418 1418 1418 1417 1417 1417 1416 1415 1414 1414 1413 1412 1411 1409 1408 1406 1405 1403 1402 1400 1398 1397 1395 1393 1391 1390 1388 1387 1385 1384 1382 1381 1379 1377 1376 1375 1373 1372 1370 1368 1367 1365 1363 1361 1360 1358 1356 1355 1355 1354 1354